[[{"header":{"parameterUnit":"m.s-1","parameterCategory":1,"la1":30.2991,"la2":30.254,"lo1":-89.0895,"lo2":-89.0444,"dy":0.0017,"dx":0.0017,"nx":28,"ny":28,"refTime":"2025-08-03T21:00:00:Z","depth":0,"parameterNumber":2,"parameterNumberName":"U-component_of_WINDS"},"data":[0,0,0,0,0,0,0,0,0,0,0,0,0,0,0,0,0,0,0,0,0,0,0,0,0,0,0,0,0,0,0,0,0,0,0,0,0,0,0,0,0,0,0,0,0,0,0,0,0,0,0,0,0,0,0,0,0,0,-0.3805,-0.3804,0,-0.3718,-0.3717,-0.3716,-0.3647,-0.3646,-0.3645,-0.3645,-0.3556,-0.3554,-0.3553,0,0,0,0,0,0,0,0,0,0,0,0,0,-0.391,-0.3909,-0.3805,-0.3804,-0.3803,-0.3719,-0.3717,-0.3716,-0.3647,-0.3646,-0.3645,-0.3644,-0.3557,-0.3555,-0.3552,0,0,0,0,0,0,0,0,0,0,0,0,0,-0.3848,-0.3908,-0.3805,-0.3758,-0.3753,-0.3719,-0.3717,-0.3716,-0.3647,-0.3646,-0.3645,-0.3644,-0.3557,-0.3555,-0.3552,-0.3558,0,0,-0.3544,-0.3543,0,0,0,0,0,0,0,0,-0.3852,-0.3844,-0.3766,-0.3761,-0.3755,-0.3692,-0.3722,-0.3663,-0.3647,-0.3687,-0.3645,-0.3643,-0.3602,-0.3596,-0.3582,-0.3554,-0.355,-0.3544,-0.3543,-0.3542,-0.3541,0,0,0,0,0,0,0,-0.3856,-0.3848,-0.3771,-0.3765,-0.3758,-0.3741,-0.3731,-0.3711,-0.3652,-0.3684,-0.3678,-0.3669,-0.3599,-0.3585,-0.3579,-0.3549,-0.3544,-0.3542,-0.354,-0.3539,-0.3522,-0.3523,0,0,0,0,0,0,-0.3868,-0.3852,-0.3773,-0.3768,-0.3802,-0.374,-0.3729,-0.3714,-0.3652,-0.3641,-0.367,-0.3666,-0.3589,-0.3582,-0.3576,-0.3579,-0.3542,-0.3539,-0.3538,-0.3521,-0.3523,-0.3524,0,0,0,0,0,0,-0.387,-0.3861,-0.3777,-0.3808,-0.3796,-0.374,-0.3723,-0.3712,-0.3698,-0.3642,-0.3631,-0.3666,-0.3588,-0.358,-0.3563,-0.3575,-0.3538,-0.3536,-0.352,-0.3522,-0.3523,-0.3586,0,0,0,0,0,0,-0.3874,-0.3863,-0.3864,-0.3809,-0.3795,-0.3765,-0.3723,-0.3712,-0.3694,-0.3688,-0.3635,-0.3625,-0.3587,-0.3568,-0.3561,-0.3571,-0.3534,-0.3519,-0.3521,-0.3523,-0.3583,-0.359,-0.3596,0,0,0,0,0,-0.3878,-0.3885,-0.3864,-0.3855,-0.3795,-0.3766,-0.3758,-0.3714,-0.3695,-0.3696,-0.366,-0.3627,-0.3575,-0.3566,-0.3558,-0.3568,-0.3518,-0.352,-0.3523,-0.358,-0.3588,-0.3595,0,0,0,0,0,0,-0.3942,-0.3876,-0.3853,-0.3843,-0.3811,-0.3754,-0.3754,-0.3724,-0.3697,-0.3692,-0.3639,-0.3627,-0.3617,-0.3591,-0.3582,-0.3571,-0.3542,-0.3543,-0.3589,-0.3596,-0.3602,-0.3609,-0.3532,0,0,0,0,0,-0.3955,-0.3937,-0.388,-0.3877,-0.3862,-0.3811,-0.3797,-0.3766,-0.373,-0.3716,-0.3679,-0.3646,-0.3622,-0.3608,-0.3583,-0.3579,-0.3567,-0.3582,-0.3588,-0.3594,-0.3595,-0.3592,-0.3598,-0.3532,-0.3532,-0.3532,0,0,-0.3981,-0.3943,-0.3935,-0.3889,-0.386,-0.3843,-0.38,-0.3783,-0.377,-0.3713,-0.3696,-0.3668,-0.3628,-0.3618,-0.3612,-0.3596,-0.3611,-0.3597,-0.3602,-0.36,-0.3595,-0.3602,-0.3607,-0.3533,-0.3533,-0.3533,0,0,-0.402,-0.399,-0.3984,-0.3957,-0.3914,-0.3881,-0.388,-0.3828,-0.3808,-0.379,-0.3748,-0.3731,-0.3691,-0.3665,-0.3646,-0.3678,-0.3647,-0.3672,-0.3705,-0.3703,-0.3708,-0.3713,-0.3725,-0.3729,-0.3673,-0.3673,-0.3673,0,-0.4058,-0.403,-0.3984,-0.397,-0.3952,-0.3901,-0.3895,-0.3871,-0.3823,-0.3811,-0.3794,-0.3744,-0.3713,-0.3697,-0.3705,-0.3692,-0.3689,-0.3677,-0.3711,-0.3715,-0.3718,-0.3729,-0.3734,-0.3677,-0.3676,-0.3676,-0.3676,0,-0.408,-0.4061,-0.4062,-0.4017,-0.3999,-0.3989,-0.3942,-0.3929,-0.39,-0.3869,-0.3852,-0.3813,-0.378,-0.3774,-0.3746,-0.3755,-0.3746,-0.3721,-0.3691,-0.3729,-0.3738,-0.3742,-0.3681,-0.368,-0.3679,-0.3678,0,0,-0.4155,-0.4087,-0.4088,-0.4068,-0.4019,-0.4003,-0.3992,-0.396,-0.3951,-0.392,-0.3909,-0.3878,-0.3855,-0.3834,-0.3802,-0.38,-0.3829,-0.3775,-0.3773,-0.3787,-0.3838,-0.3857,-0.3862,-0.3808,-0.3809,-0.3809,-0.3841,0,-0.4186,-0.4163,-0.4122,-0.4112,-0.4095,-0.4048,-0.4038,-0.4007,-0.3978,-0.396,-0.3928,-0.3907,-0.3877,-0.3865,-0.3861,-0.3826,-0.3839,-0.3824,-0.3798,-0.3798,-0.381,-0.3867,-0.3887,-0.3919,-0.3844,-0.3845,-0.3845,0,-0.4219,-0.4192,-0.4181,-0.4135,-0.4126,-0.4118,-0.4086,-0.4069,-0.4034,-0.4013,-0.3991,-0.3957,-0.3943,-0.3916,-0.3897,-0.3888,-0.3875,-0.3857,-0.3857,-0.3853,-0.3824,-0.3865,-0.3928,-0.3933,-0.3851,-0.385,-0.385,0,-0.4276,-0.4237,-0.4225,-0.421,-0.4155,-0.4151,-0.4128,-0.4091,-0.4076,-0.4048,-0.4038,-0.4009,-0.3994,-0.3973,-0.3932,-0.3916,-0.3918,-0.3887,-0.3901,-0.3902,-0.3902,-0.3903,-0.3965,-0.3895,-0.3895,-0.3895,-0.3895,0,-0.4315,-0.431,-0.425,-0.4243,-0.4237,-0.419,-0.4185,-0.4158,-0.4126,-0.4113,-0.4071,-0.406,-0.4007,-0.399,-0.3958,-0.3948,-0.3941,-0.3924,-0.3916,-0.3928,-0.393,-0.3918,-0.3915,-0.3896,-0.3896,-0.3895,-0.3895,0,-0.4377,-0.4337,-0.4321,-0.4272,-0.4259,-0.4257,-0.4214,-0.4206,-0.4175,-0.416,-0.4153,-0.4105,-0.4083,-0.4041,-0.4007,-0.3986,-0.3982,-0.3967,-0.3994,-0.3989,-0.4005,-0.4004,-0.4061,-0.4067,-0.3994,-0.3995,-0.3995,0,-0.4405,-0.44,-0.4351,-0.4339,-0.4318,-0.43,-0.4284,-0.4239,-0.4225,-0.4185,-0.4182,-0.4157,-0.4134,-0.4102,-0.4064,-0.4038,-0.4022,-0.4044,-0.4018,-0.4031,-0.4023,-0.4024,-0.4023,-0.405,-0.4051,-0.4052,-0.4052,0,-0.4458,-0.4439,-0.4418,-0.439,-0.4373,-0.4349,-0.4323,-0.4316,-0.4265,-0.4251,-0.4228,-0.4211,-0.4177,-0.4153,-0.4122,-0.4098,-0.4067,-0.4061,-0.4063,-0.4075,-0.4091,-0.4083,-0.401,-0.406,-0.4059,-0.4058,-0.4058,-0.4058,-0.4503,-0.4498,-0.4463,-0.4441,-0.4417,-0.4394,-0.4384,-0.4353,-0.4334,-0.4303,-0.4278,-0.4258,-0.4224,-0.4179,-0.4158,-0.4142,-0.4127,-0.4129,-0.413,-0.4131,-0.4136,-0.4094,-0.4136,-0.4136,-0.4136,-0.4135,-0.4135,0,-0.4555,-0.4531,-0.4511,-0.4477,-0.446,-0.4433,-0.4404,-0.4392,-0.4374,-0.4346,-0.4325,-0.43,-0.4277,-0.4238,-0.4212,-0.4207,-0.4192,-0.4202,-0.4201,-0.4197,-0.4151,-0.4152,-0.4214,-0.4214,-0.4214,-0.4214,-0.4214,-0.4214,-0.458,-0.4569,-0.4546,-0.4523,-0.4499,-0.4479,-0.4465,-0.4444,-0.4421,-0.4395,-0.4376,-0.4351,-0.4319,-0.429,-0.4268,-0.4257,-0.425,-0.4264,-0.4249,-0.4207,-0.42,-0.4193,-0.4194,-0.4263,-0.4263,-0.4296,-0.4296,-0.4296]},{"header":{"parameterUnit":"m.s-1","parameterCategory":1,"la1":30.2991,"la2":30.254,"lo1":-89.0895,"lo2":-89.0444,"dy":0.0017,"dx":0.0017,"nx":28,"ny":28,"refTime":"2025-08-03T21:00:00:Z","depth":0,"parameterNumber":3,"parameterNumberName":"V-component_of_WINDS"},"data":[0,0,0,0,0,0,0,0,0,0,0,0,0,0,0,0,0,0,0,0,0,0,0,0,0,0,0,0,0,0,0,0,0,0,0,0,0,0,0,0,0,0,0,0,0,0,0,0,0,0,0,0,0,0,0,0,0,0,1.1465,1.1465,0,1.1491,1.1491,1.1491,1.1499,1.1499,1.1499,1.1499,1.1526,1.1527,1.1528,0,0,0,0,0,0,0,0,0,0,0,0,0,1.1425,1.1426,1.1465,1.1465,1.1466,1.1491,1.1491,1.1492,1.1499,1.1499,1.1499,1.1499,1.1526,1.1527,1.1528,0,0,0,0,0,0,0,0,0,0,0,0,0,1.1446,1.1426,1.1465,1.1473,1.1474,1.1491,1.1491,1.1492,1.1499,1.1499,1.1499,1.1499,1.1526,1.1527,1.1528,1.154,0,0,1.1532,1.1533,0,0,0,0,0,0,0,0,1.1445,1.1447,1.1471,1.1472,1.1473,1.1492,1.1487,1.1508,1.15,1.149,1.1499,1.1499,1.1515,1.1517,1.1523,1.1541,1.1543,1.1532,1.1533,1.1534,1.1534,0,0,0,0,0,0,0,1.1443,1.1446,1.1475,1.1472,1.1473,1.1476,1.1478,1.1491,1.1503,1.149,1.1491,1.1494,1.1516,1.1521,1.1523,1.1543,1.1532,1.1534,1.1534,1.1535,1.1575,1.1576,0,0,0,0,0,0,1.144,1.1445,1.1474,1.1476,1.1458,1.1476,1.148,1.1486,1.1503,1.1505,1.1494,1.1494,1.1519,1.1522,1.1524,1.1541,1.1534,1.1535,1.1536,1.1575,1.1575,1.1576,0,0,0,0,0,0,1.1439,1.1443,1.1473,1.1461,1.1465,1.1477,1.1485,1.1487,1.1492,1.1506,1.1508,1.1498,1.1519,1.1522,1.1537,1.1542,1.1535,1.1537,1.1575,1.1575,1.1575,1.1572,0,0,0,0,0,0,1.1438,1.1442,1.1446,1.1461,1.1465,1.1484,1.1485,1.1487,1.1494,1.1495,1.151,1.1512,1.1519,1.1535,1.1538,1.1543,1.1538,1.1574,1.1575,1.1575,1.1572,1.1572,1.1573,0,0,0,0,0,1.1437,1.1444,1.1446,1.145,1.147,1.1485,1.1487,1.1495,1.1495,1.1499,1.1508,1.1511,1.1541,1.1536,1.154,1.1545,1.1574,1.1575,1.1575,1.1572,1.1572,1.1573,0,0,0,0,0,0,1.143,1.1446,1.1449,1.1461,1.1471,1.1486,1.1492,1.1496,1.1507,1.1507,1.1517,1.152,1.1534,1.1541,1.1536,1.1559,1.1557,1.1559,1.1553,1.1554,1.1555,1.1553,1.1539,0,0,0,0,0,1.1429,1.1439,1.1453,1.1462,1.1468,1.1479,1.1485,1.1491,1.1502,1.1507,1.1517,1.1528,1.154,1.1548,1.1559,1.1573,1.1577,1.1579,1.158,1.158,1.1581,1.1591,1.1593,1.1578,1.1578,1.1578,0,0,1.1429,1.1439,1.1445,1.1461,1.147,1.1481,1.1482,1.1493,1.1501,1.1508,1.1522,1.153,1.1544,1.1559,1.1566,1.1565,1.1586,1.1581,1.1581,1.1582,1.1592,1.1593,1.1595,1.1578,1.1578,1.1578,0,0,1.1434,1.1442,1.1452,1.1461,1.1474,1.1482,1.1484,1.1499,1.1505,1.1519,1.1525,1.1535,1.1555,1.1565,1.1573,1.1584,1.1588,1.1588,1.159,1.16,1.1601,1.1602,1.1607,1.1609,1.1589,1.1589,1.1589,0,1.1432,1.1447,1.1456,1.1467,1.1475,1.1482,1.1492,1.1501,1.1518,1.1523,1.1523,1.1549,1.1559,1.1577,1.158,1.1585,1.1589,1.1586,1.16,1.1601,1.1602,1.1608,1.1609,1.1589,1.1589,1.1589,1.1589,0,1.1445,1.1456,1.1462,1.1478,1.1487,1.1497,1.1509,1.1517,1.1522,1.153,1.1546,1.1558,1.1573,1.1578,1.1583,1.1597,1.1597,1.1598,1.1597,1.1604,1.1609,1.1611,1.1589,1.1589,1.1589,1.1589,0,0,1.1445,1.1467,1.1469,1.1477,1.1494,1.1503,1.1515,1.1529,1.1536,1.1548,1.1559,1.1577,1.1579,1.1588,1.1594,1.1603,1.1613,1.1603,1.1604,1.1605,1.1631,1.163,1.1632,1.1616,1.1616,1.1616,1.163,0,1.1452,1.1473,1.1482,1.1499,1.151,1.1518,1.1529,1.1541,1.1549,1.1561,1.1571,1.1584,1.1584,1.159,1.1599,1.161,1.1618,1.1609,1.1627,1.1628,1.1623,1.1635,1.1633,1.1645,1.1632,1.1632,1.1633,0,1.1463,1.1475,1.1493,1.151,1.1515,1.1524,1.154,1.155,1.1565,1.1571,1.1582,1.1588,1.1603,1.1601,1.1622,1.1615,1.1623,1.163,1.1631,1.1633,1.163,1.1638,1.1649,1.1652,1.1636,1.1635,1.1635,0,1.1462,1.1483,1.1497,1.1504,1.1523,1.153,1.1539,1.1553,1.1562,1.1576,1.1582,1.1597,1.1606,1.1618,1.163,1.1627,1.165,1.1649,1.1656,1.1656,1.166,1.166,1.1674,1.1665,1.1665,1.1665,1.1665,0,1.1469,1.148,1.1497,1.1506,1.1519,1.153,1.1543,1.1553,1.1566,1.1578,1.1586,1.1597,1.1611,1.1624,1.1633,1.165,1.1653,1.166,1.1662,1.1659,1.1658,1.1664,1.1664,1.1666,1.1665,1.1665,1.1665,0,1.147,1.1481,1.1497,1.1515,1.152,1.1529,1.1545,1.1555,1.1565,1.1579,1.1584,1.1599,1.1615,1.1628,1.1649,1.1655,1.1673,1.1676,1.1668,1.167,1.1677,1.1676,1.1696,1.17,1.1687,1.1688,1.1688,0,1.1474,1.1482,1.1502,1.151,1.1519,1.1532,1.1541,1.1554,1.1563,1.1582,1.159,1.1607,1.1621,1.1646,1.166,1.1677,1.168,1.1686,1.1683,1.168,1.1681,1.1681,1.1683,1.1686,1.1686,1.1686,1.1687,0,1.148,1.1486,1.1498,1.1514,1.1525,1.1538,1.1552,1.1558,1.1573,1.1584,1.1601,1.1612,1.1634,1.1651,1.167,1.168,1.1687,1.1688,1.1691,1.1688,1.1683,1.1687,1.167,1.1687,1.1687,1.1687,1.1687,1.1687,1.1482,1.1491,1.1507,1.1522,1.1533,1.1546,1.1556,1.1568,1.1582,1.1601,1.1608,1.1625,1.1642,1.1668,1.1678,1.1693,1.1694,1.1697,1.1698,1.1699,1.1699,1.1681,1.1697,1.1697,1.1697,1.1697,1.1697,0,1.1489,1.15,1.1514,1.1533,1.1545,1.155,1.1565,1.1575,1.1591,1.1606,1.162,1.164,1.1658,1.1674,1.1692,1.1701,1.1705,1.1706,1.1705,1.1708,1.1697,1.1694,1.1703,1.1703,1.1703,1.1703,1.1703,1.1703,1.1494,1.151,1.1518,1.1541,1.1552,1.1569,1.1577,1.159,1.1602,1.1624,1.1639,1.1649,1.1665,1.1686,1.1702,1.1707,1.1714,1.1714,1.1719,1.1709,1.1708,1.1708,1.1704,1.1715,1.1715,1.1729,1.1729,1.1729]}]]